Tracking 20093 objects as of 16-Dec-2019
HD Live streaming from Space Station
objects crossing your sky now

BREEZE-M R/B

Track BREEZE-M R/B now!


NORAD ID: 38099
Int'l Code: 2012-011B
Perigee: 2,225.4 km
Apogee: 63,444.5 km
Inclination: 28.4 °
Period: 1,287.6 minutes
Semi major axis: 39205 km
RCS: 1.5849 m2 (large)
Launch date: March 25, 2012
Source: Commonwealth of Independent States (former USSR) (CIS)
Launch site: TYURATAM MISSILE AND SPACE COMPLEX (TTMTR)

Note: This is a ROCKET BODY
aabbcc
Your satellite tracking list
Your tracking list is empty




NASA's NSSDC Master Catalog

Two Line Element Set (TLE):
1 38099U 12011B   19347.23713348 -.00000011 +00000-0 +00000-0 0  9992
2 38099 028.4008 062.0250 7807381 319.1250 003.7333 01.11834404031372
Source of the keplerian elements: AFSPC